Location: Lombard
(41.8800°N, 88.0080°W)
Time: 23:33:22
(UTC-05:00)

Transit 2A - Pass Details

Date: 14 February 2023
Orbit: 591 x 964 km, 66.7° (Epoch: 20 March)

Event Time Altitude Azimuth Distance (km) Brightness Sun altitude
Rises 14:08:49 0° 208° (SSW) 2,987 10.3 28.4°
Reaches altitude 10° 14:11:00 10° 209° (SSW) 2,126 10.0 28.2°
Maximum altitude 14:15:50 90° 203° (SSW) 745 6.5 27.6°
Drops below altitude 10° 14:21:18 10° 30° (NNE) 2,387 8.1 27.0°
Sets 14:23:53 0° 31° (NNE) 3,384 8.8 26.7°
